This demonstration page uses our WeatherBlox Daily Observations layout. Learn more.

Left ArrowRight Arrow

Hourly Observations for June 7, 2019

Temp ( °F °C ) Dew Point ( °F °C ) Humidity (%) Winds ( mph kmh ) Pressure ( in mb ) Visibility ( mi km ) Precip ( " mm )
12:56 am 00:56 Clear 66 18.9 63 17.2 90 90 Calm 29.86 1011 10 16 0.00 0.03
1:56 am 01:56 Clear 66 18.9 63 17.2 90 90 S 5 7 29.85 1011 10 16 0.00 0.00
2:56 am 02:56 Clear 65 18.3 63 17.2 93 93 Calm 29.85 1011 10 16 0.00 0.00
3:56 am 03:56 Clear 65 18.3 62 16.7 90 90 S 3 6 29.86 1011 10 16 0.00 0.00
4:56 am 04:56 Clear 63 17.2 62 16.7 97 97 SSW 3 6 29.87 1012 8 13 0.00 0.00
5:56 am 05:56 Clear with Mist and Fog 63 17.2 62 16.7 97 97 Calm 29.86 1011 4 6 0.00 0.00
6:09 am 06:09 Sunny with Mist and Fog 63 17 61 16 94 94 SSE 3 6 29.86 1011 2 3 0.00 0.00
6:24 am 06:24 Sunny with Mist and Fog 63 17 61 16 94 94 Calm 29.86 1011 3 5 0.00 0.00
6:56 am 06:56 Sunny with Mist and Fog 63 17.2 62 16.7 97 97 Calm 29.87 1012 3 5 0.00 0.00
7:56 am 07:56 Sunny 68 20 64 17.8 87 87 Calm 29.88 1012 8 13 0.00 0.00
8:56 am 08:56 Sunny 73 22.8 65 18.3 76 76 SE 9 15 29.87 1012 10 16 0.00 0.00
9:56 am 09:56 Sunny 76 24.4 64 17.8 67 67 S 13 20 29.87 1012 10 16 0.00 0.00
10:56 am 10:56 Sunny 79 26.1 62 16.7 56 56 SSE 13 20 29.86 1011 10 16 0.00 0.00
11:56 am 11:56 Sunny 82 27.8 59 15 46 46 SE 14 22 29.86 1011 10 16 0.00 0.00
12:56 pm 12:56 Sunny 83 28.3 58 14.4 43 43 SSE 15 24 29.85 1011 10 16 0.00 0.00
1:56 pm 13:56 Sunny 84 28.9 57 13.9 40 40 SSE 13 20 29.83 1010 10 16 0.00 0.00
2:56 pm 14:56 Mostly Sunny 85 29.4 56 13.3 37 37 S 10 17 29.82 1010 10 16 0.00 0.00
3:56 pm 15:56 Sunny 86 30 57 13.9 37 37 S 16 26 29.80 1009 10 16 0.00 0.00
4:56 pm 16:56 Sunny 86 30 59 15 40 40 S 15 24 29.80 1009 10 16 0.00 0.00
5:56 pm 17:56 Sunny 85 29.4 57 13.9 39 39 SSE 14 22 29.78 1009 10 16 0.00 0.00
6:56 pm 18:56 Sunny 85 29.4 56 13.3 37 37 S 14 22 29.78 1009 10 16 0.00 0.00
7:56 pm 19:56 Sunny 82 27.8 60 15.6 47 47 SSE 14 22 29.78 1009 10 16 0.00 0.00
8:56 pm 20:56 Sunny 79 26.1 59 15 50 50 SSE 12 19 29.79 1009 10 16 0.00 0.00
9:56 pm 21:56 Clear 76 24.4 60 15.6 58 58 SSE 13 20 29.82 1010 10 16 0.00 0.00
10:56 pm 22:56 Clear 74 23.3 59 15 60 60 SSE 12 19 29.83 1010 10 16 0.00 0.00
11:56 pm 23:56 Clear 71 21.7 59 15 66 66 SSE 9 15 29.84 1010 10 16 0.00 0.00

Powered by AerisWeather